Location: Unspecified
(64.9000°N, 0.0000°E)
Time: 22:45:23
(UTC+00:00)

A-11 Canister half - Pass Details

Date: 23 June 2019
Orbit: 1527 x 1682 km, 47.3° (Epoch: 13 October)

Event Time Altitude Azimuth Distance (km) Brightness Sun altitude
Rises 06:33:20 0° 236° (WSW) 4,712 11.1 24.4°
Reaches altitude 10° 06:37:02 10° 225° (SW) 3,715 10.7 24.8°
Maximum altitude 06:44:12 26° 174° (S) 2,665 10.5 25.5°
Drops below altitude 10° 06:51:20 10° 123° (ESE) 3,700 12.1 26.3°
Sets 06:55:00 0° 112° (ESE) 4,690 12.6 26.7°
